This demonstration page uses our WeatherBlox Daily Observations layout. Learn more.

41.55636, -103.73856

Hourly Observations for August 11, 2015

Temp ( °F °C ) Dew Point ( °F °C ) Humidity (%) Winds ( mph kmh ) Pressure ( in mb ) Visibility ( mi km ) Precip ( " mm )
12:53 am 00:53 Mostly Cloudy 66 18.9 62 16.7 87 87 ESE 5 7 30.1 1019 10 16.0934 0 0
1:53 am 01:53 Clear 65 18.3 61 16.1 87 87 NE 7 11 30.08 1019 10 16.0934 0 0
2:53 am 02:53 Clear 65 18.3 60 15.6 84 84 ENE 7 11 30.09 1019 10 16.0934 0 0
3:53 am 03:53 Mostly Cloudy 65 18.3 61 16.1 87 87 NE 6 9 30.08 1019 10 16.0934 0 0
4:53 am 04:53 Clear 63 17.2 60 15.6 90 90 E 5 7 30.09 1019 10 16.0934 0 0
5:53 am 05:53 Clear 62 16.7 59 15 90 90 E 9 15 30.12 1020 10 16.0934 0 0
6:53 am 06:53 Sunny 64 17.8 60 15.6 87 87 ESE 12 19 30.11 1020 10 16.0934 0 0
7:53 am 07:53 Sunny 68 20 62 16.7 81 81 SE 9 15 30.14 1021 10 16.0934 0 0
8:51 am 08:51 Mostly Cloudy 72 22 63 17 73 73 SSE 10 17 30.06 1018 10 16.0934 0 0
8:53 am 08:53 Mostly Cloudy 72 22.2 63 17.2 73 73 SSE 10 17 30.14 1021 10 16.0934 0 0
9:53 am 09:53 Mostly Cloudy 74 23.3 63 17.2 69 69 S 9 15 30.13 1020 10 16.0934 0 0
10:53 am 10:53 Cloudy 77 25 64 17.8 64 64 SSE 16 26 30.12 1020 10 16.0934 0 0
11:53 am 11:53 Cloudy 76 24.4 64 17.8 67 67 SSE 14 22 30.13 1020 10 16.0934 0 0
12:48 pm 12:48 Partly Cloudy 81 27 63 17 54 54 SE 14 22 29.94 1014 10 16.0934 0 0
12:53 pm 12:53 Partly Cloudy 81 27.2 63 17.2 54 54 SE 14 22 30.09 1019 10 16.0934 0 0
1:53 pm 13:53 Mostly Sunny 83 28.3 63 17.2 51 51 SE 12 19 30.07 1018 10 16.0934 0 0
2:53 pm 14:53 Mostly Sunny 85 29.4 63 17.2 48 48 SE 12 19 30.05 1018 10 16.0934 0 0
3:53 pm 15:53 Mostly Sunny 87 30.6 62 16.7 43 43 SE 15 24 30.04 1017 10 16.0934 0 0
4:53 pm 16:53 Sunny 87 30.6 63 17.2 45 45 SE 15 24 30.04 1017 10 16.0934 0 0
5:53 pm 17:53 Sunny 84 28.9 63 17.2 49 49 SE 14 22 30.03 1017 10 16.0934 0 0
6:53 pm 18:53 Sunny 82 27.8 64 17.8 55 55 ESE 14 22 30.04 1017 10 16.0934 0 0
7:53 pm 19:53 Sunny 76 24.4 66 18.9 72 72 ESE 9 15 30.05 1018 10 16.0934 0 0
8:53 pm 20:53 Clear 74 23.3 65 18.3 74 74 ESE 9 15 30.06 1018 10 16.0934 0 0
9:53 pm 21:53 Clear 72 22.2 64 17.8 76 76 ESE 12 19 30.08 1019 10 16.0934 0 0
10:53 pm 22:53 Clear 70 21.1 64 17.8 82 82 E 10 17 30.08 1019 10 16.0934 0 0
11:53 pm 23:53 Clear 68 20 63 17.2 84 84 ESE 9 15 30.08 1019 10 16.0934 0 0

Powered by AerisWeather